| time (UTC) | temp C | wind direction | speed KPH | gust KPH | rain 1hr cm | rain 24hr cm | rain mn cm | humidity % | barometer mb |
| 20260903090936 | 14 | 234 | 8.0 | 9.7 | 0.00 | 0.00 | 0.00 | 80 | 1007.5 |
| 20260903090432 | 14 | 203 | 8.0 | 11.3 | 0.00 | 0.00 | 0.00 | 80 | 1007.2 |
| 20260903085930 | 14 | 204 | 6.4 | 9.7 | 0.00 | 0.00 | 0.00 | 80 | 1007.4 |
| 20260903085428 | 14 | 197 | 12.9 | 14.5 | 0.00 | 0.00 | 0.00 | 81 | 1007.4 |
| 20260903084928 | 14 | 201 | 11.3 | 14.5 | 0.00 | 0.00 | 0.00 | 82 | 1007.3 |
| 20260903084427 | 13 | 194 | 9.7 | 11.3 | 0.00 | 0.00 | 0.00 | 84 | 1007.3 |
| 20260903083922 | 13 | 194 | 8.0 | 9.7 | 0.00 | 0.00 | 0.00 | 84 | 1007.4 |
| 20260903083419 | 13 | 188 | 8.0 | 11.3 | 0.00 | 0.00 | 0.00 | 85 | 1007.3 |
| 20260903082917 | 13 | 182 | 4.8 | 4.8 | 0.00 | 0.00 | 0.00 | 84 | 1007.4 |
| 20260903082412 | 13 | 175 | 8.0 | 9.7 | 0.00 | 0.00 | 0.00 | 84 | 1007.5 |
| 20260903081908 | 13 | 126 | 8.0 | 9.7 | 0.00 | 0.00 | 0.00 | 84 | 1007.3 |
| 20260903081403 | 13 | 184 | 4.8 | 4.8 | 0.00 | 0.00 | 0.00 | 83 | 1007.4 |
| 20260903080859 | 13 | 182 | 6.4 | 8.0 | 0.00 | 0.00 | 0.00 | 83 | 1007.5 |
| 20260903080356 | 14 | 203 | 6.4 | 8.0 | 0.00 | 0.00 | 0.00 | 83 | 1007.5 |
| 20260903075855 | 14 | 151 | 11.3 | 12.9 | 0.00 | 0.00 | 0.00 | 82 | 1007.3 |
| 20260903075351 | 14 | 189 | 11.3 | 12.9 | 0.00 | 0.00 | 0.00 | 80 | 1007.3 |
| 20260903074850 | 14 | 222 | 8.0 | 11.3 | 0.00 | 0.00 | 0.00 | 80 | 1007.1 |
| 20260903074345 | 14 | 199 | 11.3 | 14.5 | 0.00 | 0.00 | 0.00 | 81 | 1007.1 |
| 20260903073841 | 14 | 196 | 11.3 | 12.9 | 0.00 | 0.00 | 0.00 | 81 | 1007.1 |
| 20260903073335 | 14 | 180 | 16.1 | 22.5 | 0.00 | 0.00 | 0.00 | 81 | 1007.1 |
| 20260903072831 | 14 | 201 | 12.9 | 14.5 | 0.00 | 0.00 | 0.00 | 81 | 1007.2 |
| 20260903072327 | 14 | 182 | 12.9 | 14.5 | 0.00 | 0.00 | 0.00 | 80 | 1007.2 |
| 20260903071824 | 15 | 173 | 9.7 | 11.3 | 0.00 | 0.00 | 0.00 | 80 | 1007.1 |
| 20260903071320 | 15 | 201 | 14.5 | 17.7 | 0.00 | 0.00 | 0.00 | 79 | 1006.8 |
| 20260903070814 | 15 | 194 | 16.1 | 17.7 | 0.00 | 0.00 | 0.00 | 80 | 1007.0 |
| 20260903070310 | 15 | 197 | 17.7 | 25.7 | 0.00 | 0.00 | 0.00 | 80 | 1007.1 |
| 20260903065805 | 15 | 231 | 11.3 | 16.1 | 0.00 | 0.36 | 0.36 | 80 | 1006.9 |
| 20260903065306 | 14 | 160 | 14.5 | 16.1 | 0.00 | 0.36 | 0.36 | 83 | 1007.2 |
| 20260903064803 | 14 | 182 | 11.3 | 12.9 | 0.00 | 0.36 | 0.36 | 84 | 1007.2 |
| 20260903064259 | 14 | 172 | 6.4 | 8.0 | 0.00 | 0.36 | 0.36 | 84 | 1007.0 |
| 20260903063755 | 14 | 200 | 6.4 | 9.7 | 0.00 | 0.36 | 0.36 | 85 | 1007.0 |
| 20260903063249 | 14 | 199 | 8.0 | 9.7 | 0.00 | 0.36 | 0.36 | 84 | 1007.1 |
| 20260903062746 | 15 | 159 | 8.0 | 9.7 | 0.00 | 0.36 | 0.36 | 82 | 1007.1 |
| 20260903062244 | 15 | 199 | 6.4 | 8.0 | 0.00 | 0.36 | 0.36 | 81 | 1007.1 |
| 20260903061741 | 15 | 198 | 6.4 | 9.7 | 0.00 | 0.36 | 0.36 | 82 | 1007.2 |
| 20260903061233 | 15 | 201 | 11.3 | 16.1 | 0.00 | 0.36 | 0.36 | 83 | 1007.2 |
| 20260903060730 | 15 | 195 | 12.9 | 16.1 | 0.00 | 0.36 | 0.36 | 84 | 1007.1 |
| 20260903060229 | 14 | 175 | 12.9 | 14.5 | 0.00 | 0.36 | 0.36 | 85 | 1007.2 |
| 20260903055727 | 14 | 203 | 8.0 | 9.7 | 0.00 | 0.36 | 0.36 | 87 | 1007.0 |
| 20260903055226 | 14 | 199 | 11.3 | 12.9 | 0.00 | 0.36 | 0.36 | 88 | 1006.9 |
| 20260903054721 | 14 | 169 | 11.3 | 11.3 | 0.00 | 0.36 | 0.36 | 88 | 1007.1 |
| 20260903054216 | 15 | 141 | 9.7 | 12.9 | 0.00 | 0.36 | 0.36 | 87 | 1006.9 |
| 20260903053713 | 15 | 177 | 8.0 | 9.7 | 0.00 | 0.36 | 0.36 | 86 | 1006.9 |
| 20260903053207 | 15 | 203 | 8.0 | 8.0 | 0.00 | 0.36 | 0.36 | 83 | 1007.2 |
| 20260903052703 | 15 | 180 | 14.5 | 20.9 | 0.00 | 0.36 | 0.36 | 83 | 1007.0 |
| 20260903052158 | 15 | 198 | 6.4 | 8.0 | 0.00 | 0.36 | 0.36 | 81 | 1006.8 |
| 20260903051653 | 15 | 219 | 8.0 | 9.7 | 0.00 | 0.36 | 0.36 | 80 | 1007.1 |
| 20260903051149 | 15 | 178 | 17.7 | 20.9 | 0.00 | 0.36 | 0.36 | 81 | 1006.8 |
| 20260903050644 | 15 | 194 | 16.1 | 20.9 | 0.00 | 0.36 | 0.36 | 80 | 1006.9 |
| 20260903050138 | 15 | 192 | 9.7 | 14.5 | 0.00 | 0.36 | 0.36 | 79 | 1006.9 |
| 20260903045637 | 15 | 184 | 12.9 | 14.5 | 0.00 | 0.36 | 0.36 | 80 | 1006.8 |
| 20260903045134 | 15 | 199 | 16.1 | 17.7 | 0.00 | 0.36 | 0.36 | 80 | 1006.9 |
| 20260903044630 | 15 | 195 | 16.1 | 20.9 | 0.00 | 0.36 | 0.36 | 81 | 1006.9 |
| 20260903044126 | 15 | 160 | 14.5 | 17.7 | 0.00 | 0.36 | 0.36 | 81 | 1006.9 |
| 20260903043622 | 15 | 210 | 11.3 | 14.5 | 0.00 | 0.36 | 0.36 | 81 | 1006.9 |
| 20260903043121 | 15 | 212 | 14.5 | 20.9 | 0.00 | 0.36 | 0.36 | 81 | 1006.8 |
| 20260903042620 | 15 | 186 | 8.0 | 12.9 | 0.00 | 0.36 | 0.36 | 81 | 1006.8 |
| 20260903042116 | 15 | 237 | 6.4 | 11.3 | 0.00 | 0.36 | 0.36 | 82 | 1006.8 |
| 20260903041612 | 15 | 214 | 12.9 | 16.1 | 0.00 | 0.36 | 0.36 | 82 | 1006.7 |
| 20260903041108 | 15 | 177 | 8.0 | 9.7 | 0.00 | 0.36 | 0.36 | 83 | 1006.9 |
| 20260903040607 | 15 | 204 | 11.3 | 16.1 | 0.00 | 0.36 | 0.36 | 83 | 1006.7 |
| 20260903040103 | 15 | 185 | 11.3 | 12.9 | 0.00 | 0.36 | 0.36 | 84 | 1006.6 |
| 20260903035558 | 15 | 176 | 6.4 | 8.0 | 0.00 | 0.36 | 0.36 | 84 | 1006.6 |
| 20260903035054 | 15 | 189 | 11.3 | 12.9 | 0.00 | 0.36 | 0.36 | 83 | 1006.5 |
| 20260903034549 | 15 | 191 | 11.3 | 12.9 | 0.00 | 0.36 | 0.36 | 81 | 1006.4 |
| 20260903034044 | 15 | 190 | 8.0 | 9.7 | 0.00 | 0.36 | 0.36 | 80 | 1006.6 |
| 20260903033539 | 15 | 188 | 11.3 | 14.5 | 0.00 | 0.36 | 0.36 | 80 | 1006.4 |
| 20260903033035 | 15 | 195 | 12.9 | 16.1 | 0.00 | 0.36 | 0.36 | 80 | 1006.3 |
| 20260903032529 | 15 | 192 | 11.3 | 14.5 | 0.00 | 0.36 | 0.36 | 81 | 1006.2 |
| 20260903032025 | 15 | 240 | 4.8 | 4.8 | 0.00 | 0.36 | 0.36 | 81 | 1006.3 |
| 20260903031524 | 15 | 191 | 11.3 | 14.5 | 0.00 | 0.36 | 0.36 | 81 | 1006.2 |
| 20260903031020 | 15 | 180 | 8.0 | 12.9 | 0.00 | 0.36 | 0.36 | 81 | 1006.1 |
| 20260903030515 | 15 | 199 | 12.9 | 16.1 | 0.00 | 0.36 | 0.36 | 81 | 1005.9 |
| 20260903030011 | 15 | 182 | 12.9 | 14.5 | 0.00 | 0.36 | 0.36 | 82 | 1006.0 |
| 20260903025506 | 15 | 193 | 12.9 | 16.1 | 0.00 | 0.36 | 0.36 | 83 | 1005.8 |
| 20260903025002 | 15 | 197 | 9.7 | 12.9 | 0.00 | 0.36 | 0.36 | 83 | 1005.7 |
| 20260903024501 | 15 | 205 | 16.1 | 20.9 | 0.00 | 0.36 | 0.36 | 83 | 1005.6 |
| 20260903023955 | 15 | 226 | 17.7 | 22.5 | 0.00 | 0.36 | 0.36 | 83 | 1005.4 |
| 20260903023451 | 15 | 201 | 11.3 | 14.5 | 0.00 | 0.36 | 0.36 | 83 | 1005.4 |
| 20260903022946 | 15 | 206 | 16.1 | 20.9 | 0.00 | 0.36 | 0.36 | 84 | 1005.4 |
| 20260903022445 | 15 | 216 | 12.9 | 14.5 | 0.00 | 0.36 | 0.36 | 84 | 1005.3 |
| 20260903021943 | 15 | 212 | 12.9 | 14.5 | 0.00 | 0.36 | 0.36 | 84 | 1005.3 |
| 20260903021439 | 15 | 192 | 14.5 | 22.5 | 0.00 | 0.36 | 0.36 | 84 | 1005.2 |
| 20260903020935 | 15 | 199 | 17.7 | 24.1 | 0.00 | 0.36 | 0.36 | 84 | 1005.1 |
| 20260903020430 | 15 | 196 | 22.5 | 25.7 | 0.00 | 0.36 | 0.36 | 83 | 1005.3 |
| 20260903015925 | 15 | 174 | 11.3 | 14.5 | 0.00 | 0.36 | 0.36 | 83 | 1005.1 |
| 20260903015421 | 15 | 225 | 12.9 | 16.1 | 0.00 | 0.36 | 0.36 | 83 | 1005.0 |
| 20260903014915 | 15 | 188 | 9.7 | 12.9 | 0.00 | 0.36 | 0.36 | 82 | 1005.0 |
| 20260903014415 | 15 | 203 | 16.1 | 20.9 | 0.00 | 0.36 | 0.36 | 82 | 1005.0 |
| 20260903013910 | 15 | 204 | 19.3 | 22.5 | 0.00 | 0.36 | 0.36 | 83 | 1005.1 |
| 20260903013409 | 15 | 218 | 17.7 | 22.5 | 0.00 | 0.36 | 0.36 | 84 | 1004.7 |
| 20260903012909 | 15 | 194 | 22.5 | 33.8 | 0.00 | 0.36 | 0.36 | 84 | 1004.8 |
| 20260903012409 | 15 | 219 | 20.9 | 22.5 | 0.00 | 0.36 | 0.36 | 84 | 1004.7 |
| 20260903011908 | 15 | 174 | 16.1 | 17.7 | 0.00 | 0.36 | 0.36 | 86 | 1004.7 |
| 20260903011407 | 15 | 197 | 6.4 | 11.3 | 0.00 | 0.36 | 0.36 | 88 | 1004.7 |
| 20260903010903 | 15 | 193 | 22.5 | 27.4 | 0.00 | 0.36 | 0.36 | 86 | 1004.8 |
| 20260903010358 | 16 | 202 | 8.0 | 9.7 | 0.00 | 0.36 | 0.36 | 87 | 1004.5 |
| 20260903005856 | 16 | 186 | 11.3 | 14.5 | 0.00 | 0.36 | 0.36 | 87 | 1004.3 |
| 20260903005351 | 16 | 170 | 8.0 | 11.3 | 0.00 | 0.36 | 0.36 | 87 | 1004.3 |
| 20260903004849 | 16 | 155 | 14.5 | 20.9 | 0.00 | 0.36 | 0.36 | 86 | 1004.2 |
| 20260903004344 | 16 | 197 | 17.7 | 20.9 | 0.00 | 0.36 | 0.36 | 85 | 1004.2 |
| 20260903003839 | 16 | 149 | 12.9 | 14.5 | 0.00 | 0.36 | 0.36 | 86 | 1004.2 |
| 20260903003338 | 16 | 186 | 24.1 | 32.2 | 0.00 | 0.36 | 0.36 | 85 | 1004.0 |
| 20260903002833 | 16 | 204 | 17.7 | 20.9 | 0.00 | 0.36 | 0.36 | 84 | 1004.0 |
| 20260903002328 | 16 | 182 | 22.5 | 25.7 | 0.00 | 0.36 | 0.36 | 85 | 1004.0 |
| 20260903001822 | 15 | 182 | 14.5 | 17.7 | 0.00 | 0.36 | 0.36 | 89 | 1004.1 |
| 20260903001318 | 15 | 162 | 9.7 | 11.3 | 0.00 | 0.36 | 0.36 | 90 | 1003.9 |
| 20260903000818 | 15 | 177 | 16.1 | 22.5 | 0.00 | 0.36 | 0.36 | 92 | 1004.0 |
| 20260903000313 | 15 | 110 | 16.1 | 20.9 | 0.00 | 0.36 | 0.36 | 94 | 1003.9 |
| 20260902235810 | 15 | 205 | 8.0 | 11.3 | 0.00 | 0.36 | 0.36 | 95 | 1003.8 |
| 20260902235306 | 15 | 145 | 11.3 | 12.9 | 0.00 | 0.36 | 0.36 | 95 | 1004.2 |
| 20260902234800 | 15 | 167 | 9.7 | 11.3 | 0.00 | 0.36 | 0.36 | 95 | 1003.8 |
| 20260902234259 | 15 | 111 | 9.7 | 11.3 | 0.00 | 0.36 | 0.36 | 94 | 1004.0 |
| 20260902233754 | 15 | 131 | 8.0 | 12.9 | 0.00 | 0.36 | 0.36 | 94 | 1003.9 |
| 20260902233253 | 15 | 109 | 4.8 | 4.8 | 0.00 | 0.36 | 0.36 | 94 | 1003.9 |
| 20260902232752 | 15 | 115 | 8.0 | 9.7 | 0.18 | 0.36 | 0.36 | 93 | 1004.3 |
| 20260902232247 | 15 | 120 | 4.8 | 8.0 | 0.30 | 0.36 | 0.36 | 94 | 1004.4 |
| 20260902231746 | 15 | 187 | 6.4 | 9.7 | 0.30 | 0.33 | 0.33 | 93 | 1004.4 |
| 20260902231241 | 15 | 194 | 11.3 | 11.3 | 0.30 | 0.30 | 0.30 | 92 | 1004.6 |
| 20260902230741 | 15 | 189 | 8.0 | 9.7 | 0.30 | 0.28 | 0.28 | 92 | 1004.6 |
| 20260902230240 | 15 | 197 | 9.7 | 11.3 | 0.18 | 0.25 | 0.25 | 92 | 1004.3 |
| 20260902225735 | 15 | 193 | 17.7 | 17.7 | 0.36 | 0.25 | 0.25 | 92 | 1004.3 |
| 20260902225230 | 15 | 176 | 4.8 | 8.0 | 0.30 | 0.23 | 0.23 | 92 | 1004.4 |
| 20260902224729 | 15 | 204 | 4.8 | 4.8 | 0.13 | 0.20 | 0.20 | 91 | 1004.3 |
| 20260902224224 | 15 | 171 | 6.4 | 8.0 | 0.18 | 0.18 | 0.18 | 92 | 1004.2 |
| 20260902223721 | 15 | 174 | 11.3 | 12.9 | 0.13 | 0.15 | 0.15 | 91 | 1004.4 |
| 20260902223219 | 15 | 235 | 4.8 | 4.8 | 0.13 | 0.15 | 0.15 | 91 | 1004.2 |
| 20260902222719 | 15 | 173 | 11.3 | 14.5 | 0.18 | 0.13 | 0.13 | 91 | 1004.5 |
| 20260902222213 | 15 | 210 | 8.0 | 9.7 | 0.18 | 0.13 | 0.13 | 91 | 1004.3 |
| 20260902221707 | 15 | 199 | 4.8 | 4.8 | 0.00 | 0.10 | 0.10 | 91 | 1004.4 |
| 20260902221201 | 15 | 236 | 6.4 | 9.7 | 0.00 | 0.10 | 0.10 | 90 | 1004.5 |
| 20260902220656 | 15 | 200 | 4.8 | 8.0 | 0.13 | 0.10 | 0.10 | 90 | 1004.1 |
| 20260902220151 | 15 | 239 | 3.2 | 4.8 | 0.13 | 0.10 | 0.10 | 90 | 1004.2 |
| 20260902215647 | 15 | 253 | 4.8 | 8.0 | 0.00 | 0.08 | 0.08 | 89 | 1004.0 |
| 20260902215142 | 15 | 246 | 8.0 | 12.9 | 0.18 | 0.08 | 0.08 | 89 | 1004.6 |
| 20260902214637 | 15 | 279 | 4.8 | 4.8 | 0.18 | 0.08 | 0.08 | 88 | 1004.6 |
| 20260902214136 | 15 | 230 | 9.7 | 14.5 | 0.13 | 0.05 | 0.05 | 87 | 1004.5 |
| 20260902213632 | 15 | 226 | 3.2 | 4.8 | 0.13 | 0.05 | 0.05 | 87 | 1004.6 |
| 20260902213131 | 15 | 207 | 6.4 | 8.0 | 0.00 | 0.03 | 0.03 | 86 | 1004.5 |
| 20260902212626 | 16 | 240 | 4.8 | 4.8 | 0.18 | 0.03 | 0.03 | 85 | 1004.7 |
| 20260902212122 | 16 | 182 | 8.0 | 11.3 | 0.18 | 0.03 | 0.03 | 83 | 1004.6 |
| 20260902211619 | 16 | 251 | 4.8 | 4.8 | 0.00 | 0.00 | 0.00 | 83 | 1004.6 |
| 20260902211114 | 16 | 188 | 14.5 | 16.1 | 0.00 | 0.00 | 0.00 | 81 | 1004.7 |
| 20260902210613 | 16 | 208 | 16.1 | 22.5 | 0.00 | 0.00 | 0.00 | 81 | 1004.6 |
| 20260902210108 | 17 | 231 | 6.4 | 9.7 | 0.00 | 0.00 | 0.00 | 80 | 1004.3 |
| 20260902205607 | 17 | 239 | 9.7 | 12.9 | 0.00 | 0.00 | 0.00 | 78 | 1004.4 |
| 20260902205103 | 17 | 241 | 12.9 | 17.7 | 0.00 | 0.00 | 0.00 | 76 | 1004.6 |
| 20260902204602 | 17 | 260 | 11.3 | 16.1 | 0.00 | 0.00 | 0.00 | 75 | 1004.4 |
| 20260902204057 | 18 | 240 | 14.5 | 16.1 | 0.00 | 0.00 | 0.00 | 73 | 1004.6 |
| 20260902203553 | 18 | 173 | 11.3 | 14.5 | 0.00 | 0.00 | 0.00 | 73 | 1004.3 |
| 20260902203052 | 18 | 237 | 4.8 | 8.0 | 0.00 | 0.00 | 0.00 | 73 | 1004.3 |
| 20260902202548 | 18 | 211 | 12.9 | 14.5 | 0.00 | 0.00 | 0.00 | 74 | 1004.4 |
| 20260902202044 | 18 | 205 | 11.3 | 12.9 | 0.00 | 0.00 | 0.00 | 75 | 1004.2 |
| 20260902201539 | 17 | 200 | 1.6 | 3.2 | 0.00 | 0.00 | 0.00 | 76 | 1004.4 |
| 20260902201033 | 17 | 215 | 4.8 | 8.0 | 0.00 | 0.00 | 0.00 | 77 | 1004.6 |
| 20260902200528 | 16 | 178 | 12.9 | 12.9 | 0.00 | 0.00 | 0.00 | 79 | 1004.8 |
| 20260902200025 | 16 | 210 | 14.5 | 17.7 | 0.00 | 0.00 | 0.00 | 80 | 1004.9 |
| 20260902195520 | 17 | 184 | 12.9 | 17.7 | 0.00 | 0.00 | 0.00 | 76 | 1004.8 |
| 20260902195019 | 17 | 178 | 14.5 | 14.5 | 0.00 | 0.00 | 0.00 | 75 | 1004.8 |
| 20260902194518 | 17 | 153 | 12.9 | 16.1 | 0.00 | 0.00 | 0.00 | 75 | 1004.8 |
| 20260902194014 | 17 | 189 | 24.1 | 29.0 | 0.00 | 0.00 | 0.00 | 76 | 1005.0 |
| 20260902193510 | 17 | 202 | 32.2 | 40.2 | 0.00 | 0.00 | 0.00 | 74 | 1004.7 |
| 20260902193009 | 18 | 255 | 16.1 | 22.5 | 0.00 | 0.00 | 0.00 | 72 | 1004.7 |
| 20260902192508 | 20 | 262 | 14.5 | 24.1 | 0.00 | 0.00 | 0.00 | 65 | 1004.8 |
| 20260902192007 | 20 | 204 | 24.1 | 32.2 | 0.00 | 0.00 | 0.00 | 59 | 1004.5 |
| 20260902191503 | 20 | 199 | 14.5 | 16.1 | 0.00 | 0.00 | 0.00 | 59 | 1004.6 |
| 20260902190957 | 20 | 236 | 17.7 | 20.9 | 0.00 | 0.00 | 0.00 | 59 | 1004.5 |
| 20260902190452 | 20 | 258 | 14.5 | 17.7 | 0.00 | 0.00 | 0.00 | 61 | 1004.5 |
| 20260902185948 | 20 | 207 | 16.1 | 17.7 | 0.00 | 0.00 | 0.00 | 60 | 1004.8 |
| 20260902185444 | 20 | 119 | 8.0 | 9.7 | 0.00 | 0.00 | 0.00 | 62 | 1004.6 |
| 20260902184939 | 20 | 168 | 12.9 | 16.1 | 0.00 | 0.00 | 0.00 | 63 | 1004.6 |
| 20260902184434 | 20 | 213 | 4.8 | 8.0 | 0.00 | 0.00 | 0.00 | 62 | 1004.6 |
| 20260902183930 | 20 | 168 | 12.9 | 17.7 | 0.00 | 0.00 | 0.00 | 62 | 1005.1 |
| 20260902183426 | 19 | 197 | 11.3 | 12.9 | 0.00 | 0.00 | 0.00 | 64 | 1004.6 |
| 20260902182921 | 18 | 204 | 12.9 | 16.1 | 0.00 | 0.00 | 0.00 | 64 | 1004.9 |
| 20260902182417 | 18 | 157 | 9.7 | 11.3 | 0.00 | 0.00 | 0.00 | 66 | 1005.1 |
| 20260902181913 | 18 | 163 | 8.0 | 9.7 | 0.00 | 0.00 | 0.00 | 67 | 1005.0 |
| 20260902181409 | 18 | 161 | 8.0 | 9.7 | 0.00 | 0.00 | 0.00 | 67 | 1005.0 |
| 20260902180903 | 18 | 155 | 0.0 | 0.0 | 0.00 | 0.00 | 0.00 | 68 | 1005.0 |
| 20260902180358 | 18 | 210 | 6.4 | 9.7 | 0.00 | 0.00 | 0.00 | 66 | 1005.3 |
| 20260902175854 | 18 | 193 | 3.2 | 3.2 | 0.00 | 0.00 | 0.00 | 65 | 1005.2 |
| 20260902175349 | 19 | 234 | 3.2 | 4.8 | 0.00 | 0.00 | 0.00 | 65 | 1005.4 |
| 20260902174844 | 19 | 188 | 4.8 | 9.7 | 0.00 | 0.00 | 0.00 | 64 | 1005.4 |
| 20260902174341 | 18 | 174 | 12.9 | 14.5 | 0.00 | 0.00 | 0.00 | 64 | 1005.4 |
| 20260902173831 | 18 | 207 | 8.0 | 9.7 | 0.00 | 0.00 | 0.00 | 65 | 1005.5 |
| 20260902173331 | 18 | 186 | 8.0 | 11.3 | 0.00 | 0.00 | 0.00 | 66 | 1005.2 |
| 20260902172831 | 18 | 165 | 8.0 | 9.7 | 0.00 | 0.00 | 0.00 | 66 | 1005.4 |
| 20260902172325 | 18 | 190 | 6.4 | 8.0 | 0.00 | 0.00 | 0.00 | 68 | 1005.5 |
| 20260902171820 | 18 | 144 | 8.0 | 9.7 | 0.00 | 0.00 | 0.00 | 68 | 1005.6 |
| 20260902171315 | 18 | 225 | 6.4 | 8.0 | 0.00 | 0.00 | 0.00 | 69 | 1005.6 |
| 20260902170806 | 18 | 174 | 8.0 | 9.7 | 0.00 | 0.00 | 0.00 | 69 | 1005.4 |
| 20260902170300 | 18 | 166 | 6.4 | 8.0 | 0.00 | 0.00 | 0.00 | 69 | 1005.7 |
| 20260902165756 | 18 | 147 | 8.0 | 9.7 | 0.00 | 0.00 | 0.00 | 69 | 1005.8 |
| 20260902165250 | 18 | 221 | 6.4 | 8.0 | 0.00 | 0.00 | 0.00 | 70 | 1005.9 |
| 20260902164745 | 18 | 148 | 8.0 | 9.7 | 0.00 | 0.00 | 0.00 | 71 | 1006.0 |
| 20260902164244 | 17 | 193 | 6.4 | 9.7 | 0.00 | 0.00 | 0.00 | 72 | 1005.9 |
| 20260902163739 | 17 | 208 | 6.4 | 9.7 | 0.00 | 0.00 | 0.00 | 73 | 1006.0 |
| 20260902163233 | 17 | 225 | 6.4 | 8.0 | 0.00 | 0.00 | 0.00 | 74 | 1006.1 |
| 20260902162732 | 17 | 156 | 8.0 | 11.3 | 0.00 | 0.00 | 0.00 | 73 | 1006.0 |
| 20260902162226 | 17 | 205 | 0.0 | 0.0 | 0.00 | 0.00 | 0.00 | 74 | 1006.1 |
| 20260902161722 | 17 | 192 | 8.0 | 12.9 | 0.00 | 0.00 | 0.00 | 75 | 1006.2 |
| 20260902161217 | 17 | 190 | 12.9 | 14.5 | 0.00 | 0.00 | 0.00 | 75 | 1006.2 |
| 20260902160715 | 17 | 176 | 12.9 | 14.5 | 0.00 | 0.00 | 0.00 | 74 | 1006.2 |
| 20260902160208 | 17 | 115 | 11.3 | 14.5 | 0.00 | 0.00 | 0.00 | 75 | 1006.2 |
| 20260902155706 | 17 | 139 | 6.4 | 9.7 | 0.00 | 0.00 | 0.00 | 75 | 1006.3 |
| 20260902155205 | 18 | 171 | 8.0 | 11.3 | 0.00 | 0.00 | 0.00 | 74 | 1006.5 |
| 20260902154701 | 18 | 212 | 8.0 | 9.7 | 0.00 | 0.00 | 0.00 | 73 | 1006.2 |
| 20260902154200 | 17 | 194 | 1.6 | 3.2 | 0.00 | 0.00 | 0.00 | 73 | 1006.3 |
| 20260902153655 | 17 | 149 | 6.4 | 11.3 | 0.00 | 0.00 | 0.00 | 76 | 1006.8 |
| 20260902153150 | 17 | 135 | 8.0 | 11.3 | 0.00 | 0.00 | 0.00 | 77 | 1006.7 |
| 20260902152646 | 17 | 168 | 12.9 | 17.7 | 0.00 | 0.00 | 0.00 | 76 | 1006.7 |
| 20260902152141 | 17 | 206 | 8.0 | 11.3 | 0.00 | 0.00 | 0.00 | 77 | 1006.7 |
| 20260902151636 | 17 | 187 | 4.8 | 4.8 | 0.00 | 0.00 | 0.00 | 78 | 1006.9 |
| 20260902151137 | 16 | 145 | 6.4 | 8.0 | 0.00 | 0.00 | 0.00 | 79 | 1006.9 |
| 20260902150632 | 16 | 138 | 6.4 | 8.0 | 0.00 | 0.00 | 0.00 | 80 | 1006.8 |
| 20260902150127 | 16 | 163 | 6.4 | 8.0 | 0.00 | 0.00 | 0.00 | 82 | 1007.2 |
| 20260902145622 | 16 | 209 | 8.0 | 11.3 | 0.00 | 0.00 | 0.00 | 83 | 1007.0 |
| 20260902145121 | 16 | 167 | 1.6 | 3.2 | 0.00 | 0.00 | 0.00 | 83 | 1007.0 |
| 20260902144618 | 16 | 122 | 11.3 | 14.5 | 0.00 | 0.00 | 0.00 | 83 | 1007.3 |
| 20260902144118 | 16 | 156 | 4.8 | 8.0 | 0.00 | 0.00 | 0.00 | 82 | 1007.3 |
| 20260902143613 | 16 | 133 | 8.0 | 9.7 | 0.00 | 0.00 | 0.00 | 82 | 1007.2 |
| 20260902143108 | 16 | 210 | 4.8 | 4.8 | 0.00 | 0.00 | 0.00 | 83 | 1007.4 |
| 20260902142605 | 16 | 174 | 11.3 | 11.3 | 0.00 | 0.00 | 0.00 | 83 | 1007.1 |
| 20260902142100 | 15 | 182 | 8.0 | 9.7 | 0.00 | 0.00 | 0.00 | 83 | 1007.3 |
| 20260902141600 | 15 | 193 | 4.8 | 4.8 | 0.00 | 0.00 | 0.00 | 83 | 1007.3 |
| 20260902141055 | 15 | 210 | 3.2 | 4.8 | 0.00 | 0.00 | 0.00 | 84 | 1007.3 |
| 20260902140549 | 15 | 203 | 4.8 | 4.8 | 0.00 | 0.00 | 0.00 | 84 | 1007.4 |
| 20260902140046 | 15 | 197 | 6.4 | 9.7 | 0.00 | 0.00 | 0.00 | 84 | 1007.2 |
| 20260902135544 | 15 | 218 | 1.6 | 3.2 | 0.00 | 0.00 | 0.00 | 84 | 1007.3 |
| 20260902135039 | 15 | 204 | 3.2 | 3.2 | 0.00 | 0.00 | 0.00 | 84 | 1007.3 |
| 20260902134535 | 15 | 191 | 11.3 | 11.3 | 0.00 | 0.00 | 0.00 | 84 | 1007.4 |
| 20260902134035 | 15 | 198 | 11.3 | 12.9 | 0.00 | 0.00 | 0.00 | 84 | 1007.5 |
| 20260902133529 | 15 | 224 | 6.4 | 8.0 | 0.00 | 0.00 | 0.00 | 84 | 1007.4 |
| 20260902133024 | 15 | 177 | 11.3 | 12.9 | 0.00 | 0.00 | 0.00 | 84 | 1007.5 |
| 20260902132519 | 15 | 167 | 8.0 | 9.7 | 0.00 | 0.00 | 0.00 | 84 | 1007.4 |
| 20260902132015 | 15 | 197 | 4.8 | 4.8 | 0.00 | 0.00 | 0.00 | 84 | 1007.3 |
| 20260902131511 | 16 | 201 | 11.3 | 11.3 | 0.00 | 0.00 | 0.00 | 84 | 1007.4 |
| 20260902131010 | 16 | 196 | 8.0 | 9.7 | 0.00 | 0.00 | 0.00 | 83 | 1007.4 |
| 20260902130507 | 16 | 176 | 4.8 | 4.8 | 0.00 | 0.00 | 0.00 | 83 | 1007.5 |
| 20260902130002 | 16 | 210 | 9.7 | 12.9 | 0.00 | 0.00 | 0.00 | 83 | 1007.6 |
| 20260902125457 | 16 | 173 | 6.4 | 8.0 | 0.00 | 0.00 | 0.00 | 83 | 1007.6 |
| 20260902124953 | 16 | 205 | 8.0 | 9.7 | 0.00 | 0.00 | 0.00 | 83 | 1007.5 |
| 20260902124449 | 16 | 192 | 11.3 | 12.9 | 0.00 | 0.00 | 0.00 | 83 | 1007.8 |
| 20260902123944 | 16 | 201 | 4.8 | 4.8 | 0.00 | 0.00 | 0.00 | 83 | 1007.8 |
| 20260902123440 | 16 | 177 | 8.0 | 9.7 | 0.00 | 0.00 | 0.00 | 84 | 1007.6 |
| 20260902122938 | 15 | 200 | 9.7 | 12.9 | 0.00 | 0.00 | 0.00 | 84 | 1007.8 |
| 20260902122434 | 15 | 171 | 3.2 | 3.2 | 0.00 | 0.00 | 0.00 | 85 | 1007.8 |
| 20260902121930 | 15 | 193 | 9.7 | 11.3 | 0.00 | 0.00 | 0.00 | 85 | 1007.7 |
| 20260902121425 | 15 | 219 | 6.4 | 8.0 | 0.00 | 0.00 | 0.00 | 85 | 1007.9 |
| 20260902120925 | 15 | 209 | 8.0 | 9.7 | 0.00 | 0.00 | 0.00 | 85 | 1007.8 |
| 20260902120421 | 16 | 258 | 4.8 | 4.8 | 0.00 | 0.00 | 0.00 | 85 | 1007.8 |
| 20260902115920 | 16 | 228 | 3.2 | 4.8 | 0.00 | 0.00 | 0.00 | 85 | 1008.0 |
| 20260902115417 | 16 | 197 | 11.3 | 12.9 | 0.00 | 0.00 | 0.00 | 85 | 1007.9 |
| 20260902114913 | 15 | 210 | 6.4 | 9.7 | 0.00 | 0.00 | 0.00 | 85 | 1008.0 |
| 20260902114409 | 15 | 179 | 12.9 | 14.5 | 0.00 | 0.00 | 0.00 | 85 | 1007.8 |
| 20260902113903 | 16 | 208 | 14.5 | 16.1 | 0.00 | 0.00 | 0.00 | 85 | 1008.1 |
| 20260902113359 | 16 | 177 | 6.4 | 8.0 | 0.00 | 0.00 | 0.00 | 85 | 1008.0 |
| 20260902112858 | 16 | 200 | 6.4 | 8.0 | 0.00 | 0.00 | 0.00 | 85 | 1008.1 |
| 20260902112355 | 16 | 187 | 12.9 | 14.5 | 0.00 | 0.00 | 0.00 | 85 | 1008.1 |
| 20260902111850 | 16 | 169 | 11.3 | 14.5 | 0.00 | 0.00 | 0.00 | 85 | 1008.3 |
| 20260902111347 | 16 | 236 | 1.6 | 1.6 | 0.00 | 0.00 | 0.00 | 85 | 1008.3 |
| 20260902110842 | 16 | 188 | 11.3 | 17.7 | 0.00 | 0.00 | 0.00 | 86 | 1008.3 |
| 20260902110338 | 15 | 210 | 11.3 | 11.3 | 0.00 | 0.00 | 0.00 | 86 | 1008.1 |
| 20260902105837 | 15 | 238 | 6.4 | 9.7 | 0.00 | 0.00 | 0.00 | 86 | 1008.3 |
| 20260902105332 | 15 | 185 | 8.0 | 9.7 | 0.00 | 0.00 | 0.00 | 87 | 1008.2 |
| 20260902104827 | 15 | 234 | 6.4 | 8.0 | 0.00 | 0.00 | 0.00 | 87 | 1008.4 |
| 20260902104324 | 15 | 198 | 1.6 | 3.2 | 0.00 | 0.00 | 0.00 | 87 | 1008.3 |
| 20260902103823 | 15 | 222 | 8.0 | 9.7 | 0.00 | 0.00 | 0.00 | 87 | 1008.4 |
| 20260902103318 | 15 | 189 | 6.4 | 8.0 | 0.00 | 0.00 | 0.00 | 88 | 1008.7 |
| 20260902102813 | 15 | 206 | 9.7 | 16.1 | 0.00 | 0.00 | 0.00 | 88 | 1008.5 |
| 20260902102308 | 15 | 184 | 8.0 | 9.7 | 0.00 | 0.00 | 0.00 | 88 | 1008.5 |
| 20260902101801 | 15 | 185 | 9.7 | 11.3 | 0.00 | 0.00 | 0.00 | 88 | 1008.6 |
| 20260902101301 | 15 | 174 | 11.3 | 12.9 | 0.00 | 0.00 | 0.00 | 88 | 1008.5 |
| 20260902100755 | 15 | 216 | 9.7 | 12.9 | 0.00 | 0.00 | 0.00 | 88 | 1008.8 |
| 20260902100255 | 15 | 196 | 12.9 | 14.5 | 0.00 | 0.00 | 0.00 | 88 | 1008.5 |
| 20260902095749 | 15 | 182 | 6.4 | 8.0 | 0.00 | 0.00 | 0.00 | 88 | 1008.6 |
| 20260902095244 | 15 | 172 | 16.1 | 17.7 | 0.00 | 0.00 | 0.00 | 88 | 1008.6 |
| 20260902094738 | 15 | 201 | 14.5 | 20.9 | 0.00 | 0.00 | 0.00 | 88 | 1008.7 |
| 20260902094235 | 15 | 198 | 14.5 | 17.7 | 0.00 | 0.00 | 0.00 | 88 | 1008.5 |
| 20260902093734 | 15 | 201 | 6.4 | 9.7 | 0.00 | 0.00 | 0.00 | 88 | 1008.6 |
| 20260902093229 | 15 | 222 | 6.4 | 9.7 | 0.00 | 0.00 | 0.00 | 87 | 1008.5 |
| 20260902092729 | 15 | 188 | 6.4 | 8.0 | 0.00 | 0.00 | 0.00 | 88 | 1008.8 |
| 20260902092224 | 15 | 155 | 8.0 | 9.7 | 0.00 | 0.00 | 0.00 | 87 | 1008.7 |
| 20260902091723 | 16 | 198 | 9.7 | 11.3 | 0.00 | 0.00 | 0.00 | 87 | 1008.8 |
| 20260902091220 | 16 | 171 | 4.8 | 4.8 | 0.00 | 0.00 | 0.00 | 87 | 1008.8 |